User: anonymous   Login
Location: Unspecified
(0.0000°N, 0.0000°E)
Time: 08:21:43
(UTC+00:00)
Language:

NNS O-23 - Orbit

View from above orbital plane
View from above orbital plane
View from above satellite
View from above satellite

Ground track
Ground track

The orbit data is extracted from the following two-line orbital elements,

1 19070U 88033A   19345.81261972 +.00000018 +00000-0 +19032-4 0  9995
2 19070 090.3627 305.6368 0190940 156.8697 266.1689 13.27457230531575
Epoch (UTC): 11 December 2019 19:30:10
Eccentricity: 0.0190940
inclination: 90.3627°
perigee height: 1012 km
apogee height: 1300 km
right ascension of ascending node: 305.6368°
argument of perigee: 156.8697°
revolutions per day: 13.27457230
mean anomaly at epoch: 266.1689°
orbit number at epoch: 53157

The dashed part of the orbit path shows where the satellite is in the earth's shadow,  

DLR